STARLINK-1402, 45685

Orbit data source: Space-Track

STARLINK-1402, 45685 is a payload satellite owned by SpaceX/Seattle (US) in LEO that was launched on Thu, 04 Jun 2020 UTC via an FALCON 9 launch vehicle from the Air Force Eastern Test Range (AFETR). Payload-class satellites include a variety of spacecraft equipped with specific instruments for various scientific and technological missions. These include communications satellites like Starlink; space stations such as the ISS; scientific satellites like the Hubble; Earth observation satellites from companies like Planet Labs, Umbra, and HawkEye 360; GPS; miniature CubeSats for education and research; and military/defense satellites.

Loading next visibility...
Identifier
45685, 2020-035AE
Orbit
LEO
Country
Flag of USUS
Related business
Manufacturer
SpaceX/Seattle
Mission
Operational Commercial Communications
Bus & Motor
STARLINK, Unknown motor
Mass
260 kg wet, ~248 kg dry
Launch date (UTC)
2020-06-04 (5 years ago)
Launch vehicle
FALCON 9
Launch site
Air Force Eastern Test Range (AFETR)
Object type
Payload
Rocket body
Debris
Shape & HBR
Box + 1 Pan, 4.4 m
Radar Cross Section
13.562 m², Large (>1 m²)

Expand to show TLE details & history
Last TLE update: 14 hours ago

TLE from 14 hours ago
0 STARLINK-1402
1 45685U 20035AE  25260.84027735  .00001614  00000-0  12715-3 0  9990
2 45685  53.0545 106.9886 0001272 120.9138 239.1977 15.06411898292909
Epoch: 2025-09-17T20:09Z
TLE epoch observation values (Epoch: 2025-09-17T20:09:59.963Z)
Latitude
0.00007°
Longitude
167.47835°
Altitude
548.505 km
Speed
7.589 km/s
True Right ascension
07h 07m 57s
True Declination
0° 00' 00"
Sunlit
Object was in daylight at epoch
Visualization orbit readout
Latitude
Unknown
Longitude
Unknown
Altitude
Unknown
Speed
Unknown
Apparent Right ascension
Unknown
Apparent Declination
Unknown
Sunlit
N/A
Visualization observer readout
Local Sidereal Time
02:42:05
Azimuth
Unknown
Elevation
Unknown
Doppler factor
Unknown
Orbital elements
Apogee altitude
548.327 km
Perigee altitude
546.565 km
Semi-major axis
6,925.583 km
Eccentricity
0.00013
Inclination
53.0545°
RAAN
106.9886°
Arg. of periapsis
120.9138°
True anomaly
239.18518°
Mean anomaly
239.1977°
Eccentric anomaly
239.19144°
Mean motion
3.76581 °/min
Orbital period
95.6 mins
BSTAR
0.00012715
Loading maneuver chart data...
Computing Atmospheric mass density...

Documentation

Showing up to 5 results
|